Time,TemperatureF,DewpointF,PressureIn,WindDirection,WindDirectionDegrees,WindSpeedMPH,WindSpeedGustMPH,Humidity,HourlyPrecipIn,Conditions,Clouds,dailyrainin,SolarRadiationWatts/m^2,SoftwareType,DateUTC
2013-06-09 00:00:00,64.0,62.5,30.10,ESE,107,0.0,0.0,95,0.00,,,0.01,0,Wunderground v.1.15,2013-06-09 04:00:00,
2013-06-09 00:01:00,64.0,62.2,30.10,ESE,107,0.0,0.0,94,0.00,,,0.00,0,Wunderground v.1.15,2013-06-09 04:01:00,
2013-06-09 00:02:00,64.0,62.2,30.10,ESE,107,0.0,0.0,94,0.00,,,0.00,0,Wunderground v.1.15,2013-06-09 04:02:00,
2013-06-09 00:03:00,63.9,62.1,30.10,ESE,107,0.0,0.0,94,0.00,,,0.00,0,Wunderground v.1.15,2013-06-09 04:03:00,
2013-06-09 00:06:00,63.9,62.4,30.10,ESE,107,0.0,0.0,95,0.00,,,0.00,0,Wunderground v.1.15,2013-06-09 04:06:00,
2013-06-09 00:12:00,63.8,62.3,30.11,ESE,107,0.0,0.0,95,0.00,,,0.00,0,Wunderground v.1.15,2013-06-09 04:12:00,
2013-06-09 00:18:00,63.7,62.2,30.11,ESE,107,0.0,0.0,95,0.00,,,0.00,0,Wunderground v.1.15,2013-06-09 04:18:00,
2013-06-09 00:24:00,63.6,62.1,30.10,ESE,107,0.0,0.0,95,0.00,,,0.00,0,Wunderground v.1.15,2013-06-09 04:24:00,
2013-06-09 00:30:00,63.5,62.0,30.10,ESE,107,0.0,0.0,95,0.00,,,0.00,0,Wunderground v.1.15,2013-06-09 04:30:00,
2013-06-09 00:36:00,63.4,61.9,30.11,ESE,107,0.0,0.0,95,0.00,,,0.00,0,Wunderground v.1.15,2013-06-09 04:36:00,
2013-06-09 00:42:00,63.4,61.9,30.11,ESE,107,0.0,0.0,95,0.00,,,0.00,0,Wunderground v.1.15,2013-06-09 04:42:00,
2013-06-09 00:48:00,63.3,61.8,30.11,ESE,107,0.0,0.0,95,0.00,,,0.00,0,Wunderground v.1.15,2013-06-09 04:48:00,
2013-06-09 00:54:00,63.1,61.6,30.11,ESE,107,0.0,0.0,95,0.00,,,0.00,0,Wunderground v.1.15,2013-06-09 04:54:00,
2013-06-09 00:59:00,63.0,61.5,30.11,ESE,107,0.0,0.0,95,0.00,,,0.00,0,Wunderground v.1.15,2013-06-09 04:59:00,
2013-06-09 01:05:00,62.9,61.4,30.11,ESE,107,0.0,0.0,95,0.00,,,0.00,0,Wunderground v.1.15,2013-06-09 05:05:00,
2013-06-09 01:10:00,62.9,61.4,30.11,ESE,107,0.0,0.0,95,0.00,,,0.00,0,Wunderground v.1.15,2013-06-09 05:10:00,
2013-06-09 01:15:00,62.7,61.2,30.11,ESE,107,0.0,0.0,95,0.00,,,0.00,0,Wunderground v.1.15,2013-06-09 05:15:00,
2013-06-09 01:21:00,62.6,61.1,30.11,ESE,107,0.0,0.0,95,0.00,,,0.00,0,Wunderground v.1.15,2013-06-09 05:21:00,
2013-06-09 01:26:00,62.5,61.0,30.11,ESE,107,0.0,0.0,95,0.00,,,0.00,0,Wunderground v.1.15,2013-06-09 05:26:00,
2013-06-09 01:31:00,62.5,61.3,30.11,ESE,107,0.0,0.0,96,0.00,,,0.00,0,Wunderground v.1.15,2013-06-09 05:31:00,
2013-06-09 01:37:00,62.4,61.2,30.10,ESE,107,0.0,0.0,96,0.00,,,0.00,0,Wunderground v.1.15,2013-06-09 05:37:00,
2013-06-09 01:42:00,62.3,61.1,30.11,ESE,107,0.0,0.0,96,0.00,,,0.00,0,Wunderground v.1.15,2013-06-09 05:42:00,
2013-06-09 01:48:00,62.2,61.0,30.11,ESE,107,0.0,0.0,96,0.00,,,0.00,0,Wunderground v.1.15,2013-06-09 05:48:00,
2013-06-09 01:54:00,62.1,60.9,30.10,ESE,107,0.0,0.0,96,0.00,,,0.00,0,Wunderground v.1.15,2013-06-09 05:54:00,
2013-06-09 01:59:00,62.0,60.8,30.10,ESE,107,0.0,0.0,96,0.00,,,0.00,0,Wunderground v.1.15,2013-06-09 05:59:00,
2013-06-09 02:04:00,61.9,60.7,30.10,ESE,107,0.0,0.0,96,0.00,,,0.00,0,Wunderground v.1.15,2013-06-09 06:04:00,
2013-06-09 02:09:00,61.8,60.6,30.10,ESE,107,0.0,0.0,96,0.00,,,0.00,0,Wunderground v.1.15,2013-06-09 06:09:00,
2013-06-09 02:14:00,61.8,60.6,30.10,ESE,107,0.0,0.0,96,0.00,,,0.00,0,Wunderground v.1.15,2013-06-09 06:14:00,
2013-06-09 02:19:00,61.8,60.6,30.10,ESE,107,0.0,0.0,96,0.00,,,0.00,0,Wunderground v.1.15,2013-06-09 06:19:00,
2013-06-09 02:24:00,61.7,60.5,30.09,ESE,107,0.0,0.0,96,0.00,,,0.00,0,Wunderground v.1.15,2013-06-09 06:24:00,
2013-06-09 02:29:00,61.6,60.4,30.10,ESE,107,0.0,0.0,96,0.00,,,0.00,0,Wunderground v.1.15,2013-06-09 06:29:00,
2013-06-09 02:34:00,61.5,60.3,30.10,ESE,107,0.0,0.0,96,0.00,,,0.00,0,Wunderground v.1.15,2013-06-09 06:34:00,
2013-06-09 02:39:00,61.4,60.2,30.10,ESE,107,0.0,0.0,96,0.00,,,0.00,0,Wunderground v.1.15,2013-06-09 06:39:00,
2013-06-09 02:44:00,61.2,60.1,30.10,ESE,107,0.0,0.0,96,0.00,,,0.00,0,Wunderground v.1.15,2013-06-09 06:44:00,
2013-06-09 02:49:00,61.1,60.0,30.10,ESE,107,0.0,0.0,96,0.00,,,0.00,0,Wunderground v.1.15,2013-06-09 06:49:00,
2013-06-09 02:54:00,61.1,60.0,30.10,ESE,107,0.0,0.0,96,0.00,,,0.00,0,Wunderground v.1.15,2013-06-09 06:54:00,
2013-06-09 02:59:00,61.0,59.9,30.10,ESE,107,0.0,0.0,96,0.00,,,0.00,0,Wunderground v.1.15,2013-06-09 06:59:00,
2013-06-09 03:04:00,60.9,59.8,30.10,ESE,107,0.0,0.0,96,0.00,,,0.00,0,Wunderground v.1.15,2013-06-09 07:04:00,
2013-06-09 03:09:00,60.9,59.8,30.10,ESE,107,0.0,0.0,96,0.00,,,0.00,0,Wunderground v.1.15,2013-06-09 07:09:00,
2013-06-09 03:14:00,60.9,59.8,30.10,ESE,107,0.0,0.0,96,0.00,,,0.00,0,Wunderground v.1.15,2013-06-09 07:14:00,
2013-06-09 03:19:00,60.9,59.8,30.10,ESE,107,0.0,0.0,96,0.00,,,0.00,0,Wunderground v.1.15,2013-06-09 07:19:00,
2013-06-09 03:24:00,60.9,59.8,30.10,ESE,107,0.0,0.0,96,0.00,,,0.00,0,Wunderground v.1.15,2013-06-09 07:24:00,
2013-06-09 03:29:00,61.0,59.9,30.10,ESE,107,0.0,0.0,96,0.00,,,0.00,0,Wunderground v.1.15,2013-06-09 07:29:00,
2013-06-09 03:34:00,61.0,60.1,30.10,ESE,107,0.0,0.0,97,0.00,,,0.00,0,Wunderground v.1.15,2013-06-09 07:34:00,
2013-06-09 03:39:00,60.9,60.0,30.10,ESE,107,0.0,0.0,97,0.00,,,0.00,0,Wunderground v.1.15,2013-06-09 07:39:00,
2013-06-09 03:44:00,60.9,60.0,30.10,ESE,107,0.0,0.0,97,0.00,,,0.00,0,Wunderground v.1.15,2013-06-09 07:44:00,
2013-06-09 03:49:00,60.9,60.0,30.10,ESE,107,0.0,0.0,97,0.00,,,0.00,0,Wunderground v.1.15,2013-06-09 07:49:00,
2013-06-09 03:54:00,60.8,59.9,30.10,ESE,107,0.0,0.0,97,0.00,,,0.00,0,Wunderground v.1.15,2013-06-09 07:54:00,
2013-06-09 03:59:00,60.8,59.9,30.10,ESE,107,0.0,0.0,97,0.00,,,0.00,0,Wunderground v.1.15,2013-06-09 07:59:00,
2013-06-09 04:04:00,60.8,59.9,30.10,ESE,107,0.0,0.0,97,0.00,,,0.00,0,Wunderground v.1.15,2013-06-09 08:04:00,
2013-06-09 04:09:00,60.8,59.9,30.10,ESE,107,0.0,0.0,97,0.00,,,0.00,0,Wunderground v.1.15,2013-06-09 08:09:00,
2013-06-09 04:14:00,60.8,59.9,30.10,ESE,107,0.0,0.0,97,0.00,,,0.00,0,Wunderground v.1.15,2013-06-09 08:14:00,
2013-06-09 04:19:00,60.8,59.9,30.10,ESE,107,0.0,0.0,97,0.00,,,0.00,0,Wunderground v.1.15,2013-06-09 08:19:00,
2013-06-09 04:24:00,60.8,59.9,30.10,ESE,107,0.0,0.0,97,0.00,,,0.00,0,Wunderground v.1.15,2013-06-09 08:24:00,
2013-06-09 04:29:00,60.7,59.8,30.10,ESE,107,0.0,0.0,97,0.00,,,0.00,0,Wunderground v.1.15,2013-06-09 08:29:00,
2013-06-09 04:34:00,60.7,59.8,30.10,ESE,107,0.0,0.0,97,0.00,,,0.00,0,Wunderground v.1.15,2013-06-09 08:34:00,
2013-06-09 04:39:00,60.7,59.8,30.10,ESE,107,0.0,0.0,97,0.00,,,0.00,0,Wunderground v.1.15,2013-06-09 08:39:00,
2013-06-09 04:44:00,60.7,59.8,30.10,ESE,107,0.0,0.0,97,0.00,,,0.00,0,Wunderground v.1.15,2013-06-09 08:44:00,
2013-06-09 04:49:00,60.7,59.8,30.10,ESE,107,0.0,0.0,97,0.00,,,0.00,0,Wunderground v.1.15,2013-06-09 08:49:00,
2013-06-09 04:54:00,60.6,59.7,30.10,ESE,107,0.0,0.0,97,0.00,,,0.00,0,Wunderground v.1.15,2013-06-09 08:54:00,
2013-06-09 04:59:00,60.5,59.6,30.10,ESE,107,0.0,0.0,97,0.00,,,0.00,0,Wunderground v.1.15,2013-06-09 08:59:00,
2013-06-09 05:04:00,60.4,59.5,30.10,ESE,107,0.0,0.0,97,0.00,,,0.00,0,Wunderground v.1.15,2013-06-09 09:04:00,
2013-06-09 05:09:00,60.4,59.5,30.10,ESE,107,0.0,0.0,97,0.00,,,0.00,0,Wunderground v.1.15,2013-06-09 09:09:00,
2013-06-09 05:15:00,60.3,59.4,30.10,ESE,107,0.0,0.0,97,0.00,,,0.00,0,Wunderground v.1.15,2013-06-09 09:15:00,
2013-06-09 05:20:00,60.3,59.4,30.11,ESE,107,0.0,0.0,97,0.00,,,0.00,0,Wunderground v.1.15,2013-06-09 09:20:00,
2013-06-09 05:25:00,60.3,59.4,30.11,ESE,107,0.0,0.0,97,0.00,,,0.00,0,Wunderground v.1.15,2013-06-09 09:25:00,
2013-06-09 05:30:00,60.3,59.4,30.11,ESE,107,0.0,0.0,97,0.00,,,0.00,0,Wunderground v.1.15,2013-06-09 09:30:00,
2013-06-09 05:35:00,60.2,59.3,30.11,ESE,107,0.0,0.0,97,0.00,,,0.00,0,Wunderground v.1.15,2013-06-09 09:35:00,
2013-06-09 05:40:00,60.2,59.3,30.11,ESE,107,0.0,0.0,97,0.00,,,0.00,0,Wunderground v.1.15,2013-06-09 09:40:00,
2013-06-09 05:45:00,60.0,59.1,30.11,ESE,107,0.0,0.0,97,0.00,,,0.00,0,Wunderground v.1.15,2013-06-09 09:45:00,
2013-06-09 05:50:00,60.0,59.1,30.11,ESE,107,0.0,0.0,97,0.00,,,0.00,0,Wunderground v.1.15,2013-06-09 09:50:00,
2013-06-09 05:55:00,60.0,59.1,30.11,ESE,107,0.0,0.0,97,0.00,,,0.00,0,Wunderground v.1.15,2013-06-09 09:55:00,
2013-06-09 06:01:00,60.0,59.1,30.12,ESE,107,0.0,0.0,97,0.00,,,0.00,0,Wunderground v.1.15,2013-06-09 10:01:00,
2013-06-09 06:06:00,60.0,59.1,30.12,ESE,107,0.0,0.0,97,0.00,,,0.00,0,Wunderground v.1.15,2013-06-09 10:06:00,
2013-06-09 06:11:00,60.0,59.1,30.12,ESE,107,0.0,0.0,97,0.00,,,0.00,0,Wunderground v.1.15,2013-06-09 10:11:00,
2013-06-09 06:16:00,60.1,59.2,30.12,ESE,107,0.0,0.0,97,0.00,,,0.00,0,Wunderground v.1.15,2013-06-09 10:16:00,
2013-06-09 06:21:00,60.2,59.3,30.12,ESE,107,0.0,0.0,97,0.00,,,0.00,0,Wunderground v.1.15,2013-06-09 10:21:00,
2013-06-09 06:26:00,60.2,59.3,30.12,ESE,107,0.0,0.0,97,0.00,,,0.00,0,Wunderground v.1.15,2013-06-09 10:26:00,
2013-06-09 06:31:00,60.3,59.4,30.13,ESE,107,0.0,0.0,97,0.00,,,0.00,0,Wunderground v.1.15,2013-06-09 10:31:00,
2013-06-09 06:36:00,60.4,59.5,30.13,ESE,107,0.0,0.0,97,0.00,,,0.00,5,Wunderground v.1.15,2013-06-09 10:36:00,
2013-06-09 06:41:00,60.4,59.8,30.12,ESE,107,0.0,0.0,98,0.00,,,0.00,11,Wunderground v.1.15,2013-06-09 10:41:00,
2013-06-09 06:46:00,60.5,59.6,30.12,ESE,107,0.0,0.0,97,0.00,,,0.00,12,Wunderground v.1.15,2013-06-09 10:46:00,
2013-06-09 06:51:00,60.7,60.1,30.12,ESE,107,0.0,0.0,98,0.00,,,0.00,12,Wunderground v.1.15,2013-06-09 10:51:00,
2013-06-09 06:57:00,60.9,60.3,30.12,ESE,107,0.0,0.0,98,0.00,,,0.00,14,Wunderground v.1.15,2013-06-09 10:57:00,
2013-06-09 07:02:00,61.0,60.4,30.12,ESE,107,0.0,0.0,98,0.00,,,0.00,25,Wunderground v.1.15,2013-06-09 11:02:00,
2013-06-09 07:07:00,61.1,60.5,30.12,ESE,107,1.0,1.0,98,0.00,,,0.00,26,Wunderground v.1.15,2013-06-09 11:07:00,
2013-06-09 07:12:00,61.1,60.5,30.13,ESE,107,0.0,1.0,98,0.00,,,0.00,21,Wunderground v.1.15,2013-06-09 11:12:00,
2013-06-09 07:17:00,61.1,60.5,30.13,ESE,107,0.0,1.0,98,0.00,,,0.00,32,Wunderground v.1.15,2013-06-09 11:17:00,
2013-06-09 07:22:00,61.1,60.5,30.13,ESE,107,0.0,0.0,98,0.00,,,0.00,42,Wunderground v.1.15,2013-06-09 11:22:00,
2013-06-09 07:27:00,61.2,60.6,30.13,ESE,107,0.0,0.0,98,0.00,,,0.00,51,Wunderground v.1.15,2013-06-09 11:27:00,
2013-06-09 07:32:00,61.3,60.7,30.13,ESE,107,0.0,1.0,98,0.00,,,0.00,49,Wunderground v.1.15,2013-06-09 11:32:00,
2013-06-09 07:37:00,61.3,60.7,30.12,ESE,107,0.0,1.0,98,0.00,,,0.00,62,Wunderground v.1.15,2013-06-09 11:37:00,
2013-06-09 07:42:00,61.4,60.8,30.13,ESE,107,0.0,0.0,98,0.00,,,0.00,74,Wunderground v.1.15,2013-06-09 11:42:00,
2013-06-09 07:47:00,61.6,61.0,30.12,ESE,107,0.0,0.0,98,0.00,,,0.00,86,Wunderground v.1.15,2013-06-09 11:47:00,
2013-06-09 07:52:00,61.8,61.2,30.12,ESE,107,0.0,0.0,98,0.00,,,0.00,88,Wunderground v.1.15,2013-06-09 11:52:00,
2013-06-09 07:57:00,61.9,61.3,30.12,ESE,107,0.0,0.0,98,0.00,,,0.00,139,Wunderground v.1.15,2013-06-09 11:57:00,
2013-06-09 08:02:00,62.1,61.5,30.12,North,355,0.0,0.0,98,0.00,,,0.00,156,Wunderground v.1.15,2013-06-09 12:02:00,
2013-06-09 08:07:00,62.3,61.7,30.12,North,355,0.0,0.0,98,0.00,,,0.00,285,Wunderground v.1.15,2013-06-09 12:07:00,
2013-06-09 08:12:00,62.9,62.3,30.12,North,355,0.0,0.0,98,0.00,,,0.00,185,Wunderground v.1.15,2013-06-09 12:12:00,
2013-06-09 08:17:00,63.4,62.8,30.12,North,355,0.0,0.0,98,0.00,,,0.00,176,Wunderground v.1.15,2013-06-09 12:17:00,
2013-06-09 08:22:00,63.8,63.2,30.12,North,355,0.0,0.0,98,0.00,,,0.00,141,Wunderground v.1.15,2013-06-09 12:22:00,
2013-06-09 08:27:00,64.2,63.6,30.12,North,355,0.0,0.0,98,0.00,,,0.00,97,Wunderground v.1.15,2013-06-09 12:27:00,
2013-06-09 08:32:00,64.4,63.8,30.12,North,355,0.0,0.0,98,0.00,,,0.00,95,Wunderground v.1.15,2013-06-09 12:32:00,
2013-06-09 08:37:00,64.5,63.9,30.12,North,355,0.0,0.0,98,0.00,,,0.00,146,Wunderground v.1.15,2013-06-09 12:37:00,
2013-06-09 08:42:00,64.8,64.2,30.12,North,355,0.0,0.0,98,0.00,,,0.00,262,Wunderground v.1.15,2013-06-09 12:42:00,
2013-06-09 08:47:00,64.9,64.3,30.12,North,355,0.0,0.0,98,0.00,,,0.00,121,Wunderground v.1.15,2013-06-09 12:47:00,
2013-06-09 08:52:00,65.2,64.6,30.12,North,355,0.0,0.0,98,0.00,,,0.00,125,Wunderground v.1.15,2013-06-09 12:52:00,
2013-06-09 08:57:00,65.6,65.3,30.12,North,355,0.0,0.0,99,0.00,,,0.00,165,Wunderground v.1.15,2013-06-09 12:57:00,
2013-06-09 09:02:00,66.1,65.8,30.12,North,355,0.0,0.0,99,0.00,,,0.00,174,Wunderground v.1.15,2013-06-09 13:02:00,
2013-06-09 09:07:00,66.4,65.8,30.12,North,355,0.0,1.0,98,0.00,,,0.00,186,Wunderground v.1.15,2013-06-09 13:07:00,
2013-06-09 09:12:00,66.7,66.1,30.12,ESE,120,0.0,2.0,98,0.00,,,0.00,167,Wunderground v.1.15,2013-06-09 13:12:00,
2013-06-09 09:18:00,67.0,66.7,30.12,ESE,120,0.0,2.0,99,0.00,,,0.00,204,Wunderground v.1.15,2013-06-09 13:18:00,
2013-06-09 09:23:00,67.5,67.2,30.12,ESE,120,0.0,2.0,99,0.00,,,0.00,237,Wunderground v.1.15,2013-06-09 13:23:00,
2013-06-09 09:28:00,68.0,67.7,30.12,ESE,120,0.0,2.0,99,0.00,,,0.00,221,Wunderground v.1.15,2013-06-09 13:28:00,
2013-06-09 09:33:00,68.6,68.3,30.12,ESE,120,0.0,0.0,99,0.00,,,0.00,218,Wunderground v.1.15,2013-06-09 13:33:00,
2013-06-09 09:38:00,69.0,68.7,30.12,NW,314,0.0,3.0,99,0.00,,,0.00,281,Wunderground v.1.15,2013-06-09 13:38:00,
2013-06-09 09:43:00,69.4,69.1,30.12,North,5,4.0,5.0,99,0.00,,,0.00,429,Wunderground v.1.15,2013-06-09 13:43:00,
2013-06-09 09:48:00,69.9,69.6,30.11,SE,138,5.0,5.0,99,0.00,,,0.00,327,Wunderground v.1.15,2013-06-09 13:48:00,
2013-06-09 09:53:00,70.4,69.8,30.11,SSE,163,0.0,5.0,98,0.00,,,0.00,353,Wunderground v.1.15,2013-06-09 13:53:00,
2013-06-09 09:58:00,71.0,70.1,30.12,South,176,0.0,6.0,97,0.00,,,0.00,195,Wunderground v.1.15,2013-06-09 13:58:00,
2013-06-09 10:03:00,71.6,70.1,30.11,SE,133,0.0,6.0,95,0.00,,,0.00,169,Wunderground v.1.15,2013-06-09 14:03:00,
2013-06-09 10:08:00,72.0,69.5,30.11,ESE,111,0.0,6.0,92,0.00,,,0.00,230,Wunderground v.1.15,2013-06-09 14:08:00,
2013-06-09 10:13:00,72.5,69.7,30.11,ESE,111,0.0,4.0,91,0.00,,,0.00,246,Wunderground v.1.15,2013-06-09 14:13:00,
2013-06-09 10:18:00,73.0,69.6,30.11,ESE,108,0.0,5.0,89,0.00,,,0.00,301,Wunderground v.1.15,2013-06-09 14:18:00,
2013-06-09 10:23:00,73.4,69.3,30.11,ESE,107,0.0,5.0,87,0.00,,,0.00,163,Wunderground v.1.15,2013-06-09 14:23:00,
2013-06-09 10:29:00,73.6,69.2,30.10,East,91,0.0,5.0,86,0.00,,,0.00,214,Wunderground v.1.15,2013-06-09 14:29:00,
2013-06-09 10:34:00,73.9,69.1,30.10,ESE,121,0.0,4.0,85,0.00,,,0.00,752,Wunderground v.1.15,2013-06-09 14:34:00,
2013-06-09 10:39:00,74.4,69.9,30.10,ESE,121,0.0,4.0,86,0.00,,,0.00,318,Wunderground v.1.15,2013-06-09 14:39:00,
2013-06-09 10:44:00,74.9,69.7,30.10,SSE,162,5.0,7.0,84,0.00,,,0.00,313,Wunderground v.1.15,2013-06-09 14:44:00,
2013-06-09 10:49:00,75.3,69.8,30.10,SSE,153,0.0,7.0,83,0.00,,,0.00,631,Wunderground v.1.15,2013-06-09 14:49:00,
2013-06-09 10:54:00,76.1,70.2,30.10,ESE,121,4.0,4.0,82,0.00,,,0.00,795,Wunderground v.1.15,2013-06-09 14:54:00,
2013-06-09 10:59:00,77.0,69.2,30.10,ESE,123,6.0,11.0,77,0.00,,,0.00,835,Wunderground v.1.15,2013-06-09 14:59:00,
2013-06-09 11:04:00,77.6,69.4,30.10,South,177,5.0,11.0,76,0.00,,,0.00,320,Wunderground v.1.15,2013-06-09 15:04:00,
2013-06-09 11:09:00,78.0,69.8,30.10,ESE,113,6.0,11.0,76,0.00,,,0.00,824,Wunderground v.1.15,2013-06-09 15:09:00,
2013-06-09 11:14:00,78.5,69.1,30.09,East,89,4.0,13.0,73,0.00,,,0.00,789,Wunderground v.1.15,2013-06-09 15:14:00,
2013-06-09 11:19:00,78.8,69.4,30.09,SE,124,2.0,13.0,73,0.00,,,0.00,779,Wunderground v.1.15,2013-06-09 15:19:00,
2013-06-09 11:24:00,79.1,69.7,30.09,ESE,103,2.0,8.0,73,0.00,,,0.00,698,Wunderground v.1.15,2013-06-09 15:24:00,
2013-06-09 11:29:00,79.5,69.7,30.08,SE,132,5.0,8.0,72,0.00,,,0.00,814,Wunderground v.1.15,2013-06-09 15:29:00,
2013-06-09 11:34:00,79.7,69.0,30.08,SSE,161,5.0,8.0,70,0.00,,,0.00,810,Wunderground v.1.15,2013-06-09 15:34:00,
2013-06-09 11:39:00,80.1,69.8,30.08,East,96,0.0,10.0,71,0.00,,,0.00,837,Wunderground v.1.15,2013-06-09 15:39:00,
2013-06-09 11:44:00,80.3,69.6,30.08,SSE,161,6.0,8.0,70,0.00,,,0.00,846,Wunderground v.1.15,2013-06-09 15:44:00,
2013-06-09 11:49:00,80.5,69.4,30.08,SSE,154,1.0,8.0,69,0.00,,,0.00,795,Wunderground v.1.15,2013-06-09 15:49:00,
2013-06-09 11:54:00,80.6,69.1,30.08,ESE,106,0.0,6.0,68,0.00,,,0.00,673,Wunderground v.1.15,2013-06-09 15:54:00,
2013-06-09 11:59:00,80.8,70.1,30.08,East,88,4.0,6.0,70,0.00,,,0.00,853,Wunderground v.1.15,2013-06-09 15:59:00,
2013-06-09 12:04:00,81.0,69.9,30.08,ESE,117,4.0,5.0,69,0.00,,,0.00,882,Wunderground v.1.15,2013-06-09 16:04:00,
2013-06-09 12:09:00,81.2,69.2,30.08,SE,140,6.0,8.0,67,0.00,,,0.00,694,Wunderground v.1.15,2013-06-09 16:09:00,
2013-06-09 12:14:00,81.1,69.5,30.07,ESE,103,0.0,7.0,68,0.00,,,0.00,956,Wunderground v.1.15,2013-06-09 16:14:00,
2013-06-09 12:19:00,81.1,70.0,30.07,SE,134,5.0,7.0,69,0.00,,,0.00,1042,Wunderground v.1.15,2013-06-09 16:19:00,
2013-06-09 12:24:00,81.0,69.4,30.07,ESE,117,5.0,8.0,68,0.00,,,0.00,186,Wunderground v.1.15,2013-06-09 16:24:00,
2013-06-09 12:29:00,80.2,67.8,30.07,SSE,152,4.0,8.0,66,0.00,,,0.00,139,Wunderground v.1.15,2013-06-09 16:29:00,
2013-06-09 12:34:00,79.7,68.6,30.08,SSE,162,1.0,7.0,69,0.00,,,0.00,185,Wunderground v.1.15,2013-06-09 16:34:00,
2013-06-09 12:39:00,79.5,70.5,30.07,NW,306,9.0,9.0,74,0.00,,,0.00,758,Wunderground v.1.15,2013-06-09 16:39:00,
2013-06-09 12:44:00,78.8,70.2,30.07,NNW,327,5.0,7.0,75,0.00,,,0.00,345,Wunderground v.1.15,2013-06-09 16:44:00,
2013-06-09 12:49:00,78.0,70.2,30.07,NW,312,0.0,7.0,77,0.00,,,0.00,309,Wunderground v.1.15,2013-06-09 16:49:00,
2013-06-09 12:54:00,77.7,71.0,30.07,NNW,333,3.0,4.0,80,0.00,,,0.00,387,Wunderground v.1.15,2013-06-09 16:54:00,
2013-06-09 12:59:00,77.5,70.8,30.06,NNW,342,4.0,5.0,80,0.00,,,0.00,318,Wunderground v.1.15,2013-06-09 16:59:00,
2013-06-09 13:04:00,77.3,71.4,30.06,NNW,337,3.0,4.0,82,0.00,,,0.00,886,Wunderground v.1.15,2013-06-09 17:04:00,
2013-06-09 13:09:00,77.1,70.8,30.05,NW,313,0.0,5.0,81,0.00,,,0.00,251,Wunderground v.1.15,2013-06-09 17:09:00,
2013-06-09 13:14:00,77.2,71.6,30.05,NW,314,1.0,2.0,83,0.00,,,0.00,253,Wunderground v.1.15,2013-06-09 17:14:00,
2013-06-09 13:19:00,77.4,71.8,30.05,NNW,329,0.0,4.0,83,0.00,,,0.00,977,Wunderground v.1.15,2013-06-09 17:19:00,
2013-06-09 13:24:00,77.6,69.8,30.05,NNE,15,3.0,7.0,77,0.00,,,0.00,265,Wunderground v.1.15,2013-06-09 17:24:00,
2013-06-09 13:29:00,78.6,71.2,30.05,SE,131,2.0,7.0,78,0.00,,,0.00,1106,Wunderground v.1.15,2013-06-09 17:29:00,
2013-06-09 13:34:00,79.7,69.9,30.04,ENE,77,0.0,2.0,72,0.00,,,0.00,1137,Wunderground v.1.15,2013-06-09 17:34:00,
2013-06-09 13:39:00,80.8,67.9,30.04,SE,142,7.0,14.0,65,0.00,,,0.00,1179,Wunderground v.1.15,2013-06-09 17:39:00,
2013-06-09 13:44:00,81.5,67.2,30.04,NNW,337,0.0,11.0,62,0.00,,,0.00,1055,Wunderground v.1.15,2013-06-09 17:44:00,
2013-06-09 13:49:00,82.0,68.6,30.04,SSE,153,6.0,11.0,64,0.00,,,0.00,1085,Wunderground v.1.15,2013-06-09 17:49:00,
2013-06-09 13:54:00,82.2,67.9,30.03,SE,126,0.0,9.0,62,0.00,,,0.00,1085,Wunderground v.1.15,2013-06-09 17:54:00,
2013-06-09 13:59:00,82.5,67.7,30.03,SSE,147,9.0,9.0,61,0.00,,,0.00,1055,Wunderground v.1.15,2013-06-09 17:59:00,
2013-06-09 14:04:00,82.5,67.2,30.03,East,101,6.0,12.0,60,0.00,,,0.00,1056,Wunderground v.1.15,2013-06-09 18:04:00,
2013-06-09 14:09:00,82.6,67.8,30.03,SW,235,1.0,12.0,61,0.00,,,0.00,1216,Wunderground v.1.15,2013-06-09 18:09:00,
2013-06-09 14:14:00,82.9,68.1,30.03,SE,128,0.0,9.0,61,0.00,,,0.00,418,Wunderground v.1.15,2013-06-09 18:14:00,
2013-06-09 14:19:00,82.9,67.6,30.03,SW,214,4.0,9.0,60,0.00,,,0.00,485,Wunderground v.1.15,2013-06-09 18:19:00,
2013-06-09 14:24:00,82.6,67.3,30.03,South,169,0.0,8.0,60,0.00,,,0.00,250,Wunderground v.1.15,2013-06-09 18:24:00,
2013-06-09 14:29:00,82.2,67.4,30.03,East,81,1.0,8.0,61,0.00,,,0.00,142,Wunderground v.1.15,2013-06-09 18:29:00,
2013-06-09 14:34:00,81.8,68.0,30.03,West,270,1.0,3.0,63,0.00,,,0.00,127,Wunderground v.1.15,2013-06-09 18:34:00,
2013-06-09 14:39:00,81.4,67.6,30.03,South,170,4.0,4.0,63,0.00,,,0.00,98,Wunderground v.1.15,2013-06-09 18:39:00,
2013-06-09 14:44:00,81.0,67.7,30.03,WSW,246,0.0,3.0,64,0.00,,,0.00,72,Wunderground v.1.15,2013-06-09 18:44:00,
2013-06-09 14:49:00,80.3,67.5,30.04,WSW,251,1.0,9.0,65,0.00,,,0.00,69,Wunderground v.1.15,2013-06-09 18:49:00,
2013-06-09 14:54:00,79.6,67.7,30.04,SE,127,0.0,6.0,67,0.00,,,0.01,67,Wunderground v.1.15,2013-06-09 18:54:00,
2013-06-09 14:59:00,78.8,68.2,30.04,SW,224,4.0,8.0,70,0.00,,,0.01,77,Wunderground v.1.15,2013-06-09 18:59:00,
2013-06-09 15:04:00,77.9,68.9,30.04,SW,223,0.0,5.0,74,0.06,,,0.02,114,Wunderground v.1.15,2013-06-09 19:04:00,
2013-06-09 15:10:00,77.2,69.0,30.04,SSE,163,1.0,5.0,76,0.06,,,0.02,156,Wunderground v.1.15,2013-06-09 19:10:00,
2013-06-09 15:15:00,76.4,69.0,30.04,South,188,0.0,8.0,78,0.09,,,0.03,206,Wunderground v.1.15,2013-06-09 19:15:00,
2013-06-09 15:20:00,75.9,69.3,30.03,SSW,208,2.0,8.0,80,0.06,,,0.03,478,Wunderground v.1.15,2013-06-09 19:20:00,
2013-06-09 15:25:00,75.6,69.4,30.03,South,190,0.0,2.0,81,0.04,,,0.03,388,Wunderground v.1.15,2013-06-09 19:25:00,
2013-06-09 15:30:00,75.6,70.1,30.03,West,263,0.0,4.0,83,0.00,,,0.03,429,Wunderground v.1.15,2013-06-09 19:30:00,
2013-06-09 15:35:00,75.6,70.8,30.03,WSW,247,2.0,4.0,85,0.00,,,0.03,436,Wunderground v.1.15,2013-06-09 19:35:00,
2013-06-09 15:40:00,75.7,70.5,30.03,SSW,202,0.0,4.0,84,0.00,,,0.03,438,Wunderground v.1.15,2013-06-09 19:40:00,
2013-06-09 15:45:00,76.0,71.2,30.03,SE,143,0.0,5.0,85,0.00,,,0.03,466,Wunderground v.1.15,2013-06-09 19:45:00,
2013-06-09 15:50:00,76.1,70.6,30.03,SE,146,4.0,6.0,83,0.00,,,0.03,406,Wunderground v.1.15,2013-06-09 19:50:00,
2013-06-09 15:55:00,76.2,70.7,30.03,SE,145,4.0,7.0,83,0.00,,,0.03,387,Wunderground v.1.15,2013-06-09 19:55:00,
2013-06-09 16:00:00,76.3,70.8,30.03,SSW,211,0.0,8.0,83,0.00,,,0.03,418,Wunderground v.1.15,2013-06-09 20:00:00,
2013-06-09 16:05:00,76.5,71.3,30.03,ESE,121,1.0,6.0,84,0.00,,,0.03,369,Wunderground v.1.15,2013-06-09 20:05:00,
2013-06-09 16:10:00,76.8,71.2,30.03,SSE,153,5.0,5.0,83,0.00,,,0.03,283,Wunderground v.1.15,2013-06-09 20:10:00,
2013-06-09 16:15:00,76.7,70.4,30.02,SW,215,1.0,9.0,81,0.00,,,0.03,329,Wunderground v.1.15,2013-06-09 20:15:00,
2013-06-09 16:20:00,76.8,70.5,30.02,SSE,149,2.0,2.0,81,0.00,,,0.03,225,Wunderground v.1.15,2013-06-09 20:20:00,
2013-06-09 16:25:00,76.6,69.2,30.02,SW,223,0.0,5.0,78,0.00,,,0.03,114,Wunderground v.1.15,2013-06-09 20:25:00,
2013-06-09 16:30:00,76.5,69.5,30.02,WNW,287,3.0,3.0,79,0.00,,,0.03,229,Wunderground v.1.15,2013-06-09 20:30:00,
2013-06-09 16:35:00,76.4,68.7,30.01,SSW,196,0.0,5.0,77,0.00,,,0.03,288,Wunderground v.1.15,2013-06-09 20:35:00,
2013-06-09 16:40:00,76.4,69.0,30.02,WSW,248,0.0,2.0,78,0.00,,,0.03,320,Wunderground v.1.15,2013-06-09 20:40:00,
2013-06-09 16:45:00,76.5,69.1,30.02,SW,220,0.0,4.0,78,0.00,,,0.03,380,Wunderground v.1.15,2013-06-09 20:45:00,
2013-06-09 16:50:00,76.6,68.8,30.02,West,259,0.0,2.0,77,0.00,,,0.03,214,Wunderground v.1.15,2013-06-09 20:50:00,
2013-06-09 16:55:00,76.5,68.7,30.01,West,281,0.0,7.0,77,0.00,,,0.03,237,Wunderground v.1.15,2013-06-09 20:55:00,
2013-06-09 17:01:00,76.3,67.8,30.02,SW,235,0.0,3.0,75,0.00,,,0.03,151,Wunderground v.1.15,2013-06-09 21:01:00,
2013-06-09 17:06:00,76.2,68.5,30.02,West,270,0.0,3.0,77,0.00,,,0.03,155,Wunderground v.1.15,2013-06-09 21:06:00,
2013-06-09 17:11:00,76.1,68.7,30.02,WNW,293,0.0,1.0,78,0.00,,,0.03,156,Wunderground v.1.15,2013-06-09 21:11:00,
2013-06-09 17:16:00,75.9,68.5,30.01,SW,236,1.0,4.0,78,0.00,,,0.03,156,Wunderground v.1.15,2013-06-09 21:16:00,
2013-06-09 17:21:00,75.7,68.4,30.01,NNW,329,5.0,5.0,78,0.00,,,0.03,186,Wunderground v.1.15,2013-06-09 21:21:00,
2013-06-09 17:26:00,75.5,68.5,30.02,WNW,299,2.0,5.0,79,0.00,,,0.03,192,Wunderground v.1.15,2013-06-09 21:26:00,
2013-06-09 17:31:00,75.0,68.0,30.01,WNW,286,4.0,6.0,79,0.00,,,0.03,171,Wunderground v.1.15,2013-06-09 21:31:00,
2013-06-09 17:36:00,74.5,67.9,30.02,WNW,294,3.0,6.0,80,0.00,,,0.03,163,Wunderground v.1.15,2013-06-09 21:36:00,
2013-06-09 17:41:00,74.3,68.1,30.01,WNW,288,1.0,2.0,81,0.00,,,0.03,207,Wunderground v.1.15,2013-06-09 21:41:00,
2013-06-09 17:46:00,74.2,68.0,30.01,WNW,288,0.0,3.0,81,0.00,,,0.03,209,Wunderground v.1.15,2013-06-09 21:46:00,
2013-06-09 17:52:00,74.2,68.0,30.01,WNW,297,0.0,3.0,81,0.00,,,0.03,227,Wunderground v.1.15,2013-06-09 21:52:00,
2013-06-09 17:57:00,74.2,68.3,30.01,WNW,297,0.0,3.0,82,0.00,,,0.03,236,Wunderground v.1.15,2013-06-09 21:57:00,
2013-06-09 18:02:00,74.2,68.3,30.01,WNW,297,0.0,1.0,82,0.00,,,0.03,243,Wunderground v.1.15,2013-06-09 22:02:00,
2013-06-09 18:07:00,74.3,68.8,30.00,WNW,297,2.0,3.0,83,0.00,,,0.03,251,Wunderground v.1.15,2013-06-09 22:07:00,
2013-06-09 18:12:00,74.4,68.9,30.00,WNW,299,0.0,2.0,83,0.00,,,0.03,329,Wunderground v.1.15,2013-06-09 22:12:00,
2013-06-09 18:17:00,74.4,68.9,30.00,WNW,299,0.0,2.0,83,0.00,,,0.03,350,Wunderground v.1.15,2013-06-09 22:17:00,
2013-06-09 18:22:00,74.7,69.2,29.99,WNW,299,0.0,1.0,83,0.00,,,0.03,469,Wunderground v.1.15,2013-06-09 22:22:00,
2013-06-09 18:27:00,75.3,70.1,30.00,WNW,299,0.0,1.0,84,0.00,,,0.03,383,Wunderground v.1.15,2013-06-09 22:27:00,
2013-06-09 18:33:00,75.7,68.0,30.00,ESE,109,2.0,8.0,77,0.00,,,0.03,172,Wunderground v.1.15,2013-06-09 22:33:00,
2013-06-09 18:38:00,75.9,68.2,30.00,SE,124,0.0,9.0,77,0.00,,,0.03,183,Wunderground v.1.15,2013-06-09 22:38:00,
2013-06-09 18:43:00,76.0,67.9,30.00,SE,136,0.0,6.0,76,0.00,,,0.03,195,Wunderground v.1.15,2013-06-09 22:43:00,
2013-06-09 18:48:00,76.1,68.4,30.00,SE,135,0.0,6.0,77,0.00,,,0.03,144,Wunderground v.1.15,2013-06-09 22:48:00,
2013-06-09 18:53:00,76.1,68.0,30.00,ESE,119,4.0,6.0,76,0.00,,,0.03,109,Wunderground v.1.15,2013-06-09 22:53:00,
2013-06-09 18:58:00,76.0,67.9,30.00,ESE,116,1.0,6.0,76,0.00,,,0.03,42,Wunderground v.1.15,2013-06-09 22:58:00,
2013-06-09 19:03:00,75.8,68.1,30.00,ESE,111,2.0,6.0,77,0.00,,,0.03,26,Wunderground v.1.15,2013-06-09 23:03:00,
2013-06-09 19:08:00,75.5,68.2,30.01,SE,142,4.0,9.0,78,0.00,,,0.03,23,Wunderground v.1.15,2013-06-09 23:08:00,
2013-06-09 19:13:00,74.7,68.5,30.02,ESE,113,2.0,8.0,81,0.00,,,0.04,28,Wunderground v.1.15,2013-06-09 23:13:00,
2013-06-09 19:19:00,73.7,68.6,30.02,East,99,1.0,9.0,84,0.08,,,0.05,23,Wunderground v.1.15,2013-06-09 23:19:00,
2013-06-09 19:24:00,72.9,68.5,30.02,ESE,113,0.0,6.0,86,0.08,,,0.05,35,Wunderground v.1.15,2013-06-09 23:24:00,
2013-06-09 19:29:00,72.4,68.6,30.02,ESE,108,1.0,6.0,88,0.05,,,0.05,39,Wunderground v.1.15,2013-06-09 23:29:00,
2013-06-09 19:34:00,72.1,68.7,30.02,ESE,123,0.0,4.0,89,0.51,,,0.07,30,Wunderground v.1.15,2013-06-09 23:34:00,
2013-06-09 19:39:00,71.8,68.7,30.02,East,93,0.0,4.0,90,0.31,,,0.11,23,Wunderground v.1.15,2013-06-09 23:39:00,
2013-06-09 19:44:00,71.6,68.5,30.02,SW,219,0.0,1.0,90,0.25,,,0.14,19,Wunderground v.1.15,2013-06-09 23:44:00,
2013-06-09 19:49:00,71.3,68.5,30.02,ESE,105,0.0,4.0,91,0.10,,,0.14,21,Wunderground v.1.15,2013-06-09 23:49:00,
2013-06-09 19:54:00,71.1,68.3,30.02,ESE,105,0.0,1.0,91,0.06,,,0.14,16,Wunderground v.1.15,2013-06-09 23:54:00,
2013-06-09 19:59:00,70.9,68.5,30.02,ESE,105,0.0,1.0,92,0.04,,,0.14,14,Wunderground v.1.15,2013-06-09 23:59:00,
2013-06-09 20:04:00,70.8,68.4,30.02,ESE,105,0.0,0.0,92,0.00,,,0.14,12,Wunderground v.1.15,2013-06-10 00:04:00,
2013-06-09 20:09:00,70.7,68.6,30.02,ESE,105,0.0,0.0,93,0.00,,,0.14,9,Wunderground v.1.15,2013-06-10 00:09:00,
2013-06-09 20:14:00,70.6,68.5,30.02,ESE,105,0.0,0.0,93,0.00,,,0.15,12,Wunderground v.1.15,2013-06-10 00:14:00,
2013-06-09 20:19:00,70.6,68.5,30.02,East,99,0.0,1.0,93,0.00,,,0.15,14,Wunderground v.1.15,2013-06-10 00:19:00,
2013-06-09 20:24:00,70.5,68.4,30.02,East,99,0.0,1.0,93,0.00,,,0.15,12,Wunderground v.1.15,2013-06-10 00:24:00,
2013-06-09 20:29:00,70.4,68.6,30.02,East,99,0.0,1.0,94,0.00,,,0.15,5,Wunderground v.1.15,2013-06-10 00:29:00,
2013-06-09 20:34:00,70.4,68.6,30.02,East,96,0.0,1.0,94,0.00,,,0.15,5,Wunderground v.1.15,2013-06-10 00:34:00,
2013-06-09 20:39:00,70.3,68.5,30.02,East,96,0.0,1.0,94,0.00,,,0.15,0,Wunderground v.1.15,2013-06-10 00:39:00,
2013-06-09 20:44:00,70.1,68.3,30.02,East,84,0.0,3.0,94,0.00,,,0.15,0,Wunderground v.1.15,2013-06-10 00:44:00,
2013-06-09 20:49:00,70.0,68.2,30.02,East,84,0.0,3.0,94,0.00,,,0.15,0,Wunderground v.1.15,2013-06-10 00:49:00,
2013-06-09 20:54:00,69.9,68.1,30.02,East,84,0.0,1.0,94,0.00,,,0.15,0,Wunderground v.1.15,2013-06-10 00:54:00,
2013-06-09 20:59:00,69.7,67.9,30.02,East,84,0.0,1.0,94,0.00,,,0.15,0,Wunderground v.1.15,2013-06-10 00:59:00,
2013-06-09 21:04:00,69.6,67.8,30.02,East,95,0.0,2.0,94,0.00,,,0.15,0,Wunderground v.1.15,2013-06-10 01:04:00,
2013-06-09 21:09:00,69.5,67.7,30.02,SE,131,0.0,4.0,94,0.00,,,0.15,0,Wunderground v.1.15,2013-06-10 01:09:00,
2013-06-09 21:14:00,69.4,67.6,30.01,SE,127,0.0,4.0,94,0.00,,,0.15,0,Wunderground v.1.15,2013-06-10 01:14:00,
2013-06-09 21:19:00,69.3,67.5,30.01,East,95,0.0,4.0,94,0.00,,,0.15,0,Wunderground v.1.15,2013-06-10 01:19:00,
2013-06-09 21:24:00,69.3,67.5,30.01,SSE,148,0.0,4.0,94,0.00,,,0.15,0,Wunderground v.1.15,2013-06-10 01:24:00,
2013-06-09 21:29:00,69.2,67.7,30.01,SE,144,0.0,4.0,95,0.00,,,0.15,0,Wunderground v.1.15,2013-06-10 01:29:00,
2013-06-09 21:34:00,69.2,67.7,30.01,SE,126,0.0,4.0,95,0.00,,,0.15,0,Wunderground v.1.15,2013-06-10 01:34:00,
2013-06-09 21:39:00,69.2,67.7,30.01,ESE,112,0.0,4.0,95,0.00,,,0.15,0,Wunderground v.1.15,2013-06-10 01:39:00,
2013-06-09 21:45:00,69.2,67.7,30.01,SSE,161,0.0,5.0,95,0.00,,,0.15,0,Wunderground v.1.15,2013-06-10 01:45:00,
2013-06-09 21:50:00,69.2,67.7,30.01,SSE,161,0.0,5.0,95,0.00,,,0.15,0,Wunderground v.1.15,2013-06-10 01:50:00,
2013-06-09 21:55:00,69.2,67.7,30.01,SSE,161,0.0,0.0,95,0.00,,,0.15,0,Wunderground v.1.15,2013-06-10 01:55:00,
2013-06-09 22:00:00,69.1,67.6,30.01,SSE,161,0.0,0.0,95,0.00,,,0.15,0,Wunderground v.1.15,2013-06-10 02:00:00,
2013-06-09 22:05:00,69.1,67.6,30.01,SSE,161,0.0,0.0,95,0.00,,,0.15,0,Wunderground v.1.15,2013-06-10 02:05:00,
2013-06-09 22:10:00,69.0,67.5,30.01,West,275,0.0,3.0,95,0.00,,,0.15,0,Wunderground v.1.15,2013-06-10 02:10:00,
2013-06-09 22:15:00,69.0,67.2,30.02,WSW,243,0.0,2.0,94,0.00,,,0.15,0,Wunderground v.1.15,2013-06-10 02:15:00,
2013-06-09 22:20:00,69.0,67.5,30.02,WSW,244,0.0,2.0,95,0.00,,,0.15,0,Wunderground v.1.15,2013-06-10 02:20:00,
2013-06-09 22:25:00,69.0,67.5,30.02,WSW,243,0.0,0.0,95,0.00,,,0.15,0,Wunderground v.1.15,2013-06-10 02:25:00,
2013-06-09 22:30:00,68.9,67.4,30.03,WSW,243,0.0,0.0,95,0.00,,,0.15,0,Wunderground v.1.15,2013-06-10 02:30:00,
2013-06-09 22:35:00,68.9,67.4,30.03,WSW,243,0.0,0.0,95,0.00,,,0.15,0,Wunderground v.1.15,2013-06-10 02:35:00,
2013-06-09 22:40:00,68.9,67.4,30.03,WSW,243,0.0,0.0,95,0.00,,,0.15,0,Wunderground v.1.15,2013-06-10 02:40:00,
2013-06-09 22:45:00,68.8,67.3,30.03,WSW,243,0.0,0.0,95,0.00,,,0.15,0,Wunderground v.1.15,2013-06-10 02:45:00,
2013-06-09 22:50:00,68.8,67.3,30.03,WSW,244,0.0,0.0,95,0.00,,,0.15,0,Wunderground v.1.15,2013-06-10 02:50:00,
2013-06-09 22:55:00,68.7,67.2,30.02,SW,215,0.0,0.0,95,0.00,,,0.15,0,Wunderground v.1.15,2013-06-10 02:55:00,
2013-06-09 23:00:00,68.5,67.0,30.02,South,185,0.0,1.0,95,0.00,,,0.15,0,Wunderground v.1.15,2013-06-10 03:00:00,
2013-06-09 23:05:00,68.4,66.9,30.02,East,90,0.0,1.0,95,0.00,,,0.15,0,Wunderground v.1.15,2013-06-10 03:05:00,
2013-06-09 23:10:00,68.3,67.1,30.02,East,84,0.0,2.0,96,0.00,,,0.15,0,Wunderground v.1.15,2013-06-10 03:10:00,
2013-06-09 23:15:00,68.3,67.1,30.01,East,84,0.0,3.0,96,0.00,,,0.15,0,Wunderground v.1.15,2013-06-10 03:15:00,
2013-06-09 23:20:00,68.2,67.0,30.01,East,84,0.0,0.0,96,0.00,,,0.15,0,Wunderground v.1.15,2013-06-10 03:20:00,
2013-06-09 23:25:00,68.2,67.0,30.02,East,84,0.0,1.0,96,0.00,,,0.15,0,Wunderground v.1.15,2013-06-10 03:25:00,
2013-06-09 23:30:00,68.2,67.0,30.01,East,84,0.0,1.0,96,0.00,,,0.15,0,Wunderground v.1.15,2013-06-10 03:30:00,
2013-06-09 23:35:00,68.2,67.0,30.01,East,84,0.0,0.0,96,0.00,,,0.15,0,Wunderground v.1.15,2013-06-10 03:35:00,
2013-06-09 23:40:00,68.1,66.9,30.01,East,84,0.0,0.0,96,0.00,,,0.15,0,Wunderground v.1.15,2013-06-10 03:40:00,
2013-06-09 23:45:00,68.0,66.8,30.01,East,84,0.0,0.0,96,0.00,,,0.15,0,Wunderground v.1.15,2013-06-10 03:45:00,
2013-06-09 23:50:00,68.0,66.8,30.01,East,84,0.0,1.0,96,0.00,,,0.15,0,Wunderground v.1.15,2013-06-10 03:50:00,
2013-06-09 23:55:00,67.9,66.7,30.01,East,84,0.0,0.0,96,0.00,,,0.15,0,Wunderground v.1.15,2013-06-10 03:55:00,